| time (UTC) | temp F | wind direction | speed MPH | gust MPH | rain 1hr in | rain 24hr in | rain mn in | humidity % | barometer mb |
| 20260506090050 | 56 | 254 | 5.0 | 13.0 | 0.00 | 0.02 | 0.00 | 82 | 1008.7 |
| 20260506084605 | 55 | 239 | 3.0 | 10.0 | 0.00 | 0.02 | 0.00 | 84 | 1008.5 |
| 20260506083100 | 54 | 247 | 4.0 | 9.0 | 0.00 | 0.02 | 0.00 | 85 | 1008.5 |
| 20260506081604 | 54 | 241 | 4.0 | 9.0 | 0.00 | 0.02 | 0.00 | 86 | 1008.4 |
| 20260506073101 | 52 | 270 | 4.0 | 8.0 | 0.00 | 0.02 | 0.00 | 90 | 1008.4 |
| 20260506071601 | 52 | 243 | 3.0 | 6.0 | 0.00 | 0.02 | 0.00 | 92 | 1008.4 |
| 20260506070103 | 51 | 236 | 0.0 | 3.0 | 0.00 | 0.02 | 0.00 | 94 | 1008.2 |
| 20260506061548 | 50 | 248 | 0.0 | 4.0 | 0.00 | 0.02 | 0.00 | 95 | 1007.8 |
| 20260506044556 | 49 | 221 | 0.0 | 3.0 | 0.00 | 0.04 | 0.00 | 95 | 1007.7 |
| 20260506043110 | 49 | 250 | 0.0 | 4.0 | 0.00 | 0.04 | 0.00 | 95 | 1007.6 |
| 20260506041554 | 49 | 230 | 1.0 | 5.0 | 0.00 | 0.04 | 0.00 | 95 | 1007.5 |
| 20260506034618 | 49 | 218 | 2.0 | 5.0 | 0.00 | 0.05 | 0.00 | 95 | 1007.3 |
| 20260506033052 | 49 | 238 | 1.0 | 5.0 | 0.00 | 0.05 | 0.00 | 95 | 1007.5 |
| 20260506031555 | 49 | 233 | 1.0 | 4.0 | 0.00 | 0.05 | 0.00 | 95 | 1007.6 |
| 20260506030048 | 49 | 220 | 1.0 | 3.0 | 0.00 | 0.05 | 0.00 | 94 | 1007.6 |
| 20260506024552 | 49 | 247 | 0.0 | 6.0 | 0.00 | 0.05 | 0.00 | 95 | 1007.6 |
| 20260506023106 | 49 | 214 | 1.0 | 6.0 | 0.00 | 0.05 | 0.00 | 94 | 1007.7 |
| 20260506021546 | 49 | 222 | 3.0 | 8.0 | 0.00 | 0.05 | 0.00 | 94 | 1007.6 |
| 20260506020100 | 49 | 207 | 2.0 | 7.0 | 0.00 | 0.05 | 0.00 | 95 | 1007.6 |
| 20260506014605 | 49 | 250 | 3.0 | 7.0 | 0.00 | 0.06 | 0.00 | 95 | 1007.6 |
| 20260506013111 | 48 | 247 | 2.0 | 7.0 | 0.00 | 0.06 | 0.00 | 95 | 1007.7 |
| 20260506011600 | 48 | 248 | 3.0 | 6.0 | 0.00 | 0.06 | 0.00 | 95 | 1007.9 |
| 20260506010112 | 48 | 202 | 1.0 | 4.0 | 0.00 | 0.06 | 0.00 | 94 | 1008.1 |
| 20260506004506 | 49 | 236 | 0.0 | 3.0 | 0.00 | 0.06 | 0.00 | 94 | 1008.3 |
| 20260506003107 | 49 | 226 | 1.0 | 4.0 | 0.00 | 0.06 | 0.00 | 94 | 1008.3 |
| 20260506001554 | 49 | 252 | 2.0 | 7.0 | 0.00 | 0.06 | 0.00 | 93 | 1008.5 |
| 20260506000051 | 49 | 245 | 2.0 | 6.0 | 0.00 | 0.06 | 0.00 | 94 | 1008.7 |
| 20260505234600 | 49 | 229 | 0.0 | 5.0 | 0.00 | 0.09 | 0.00 | 94 | 1008.8 |
| 20260505233124 | 49 | 240 | 3.0 | 6.0 | 0.00 | 0.09 | 0.00 | 94 | 1008.6 |
| 20260505231557 | 49 | 198 | 1.0 | 5.0 | 0.00 | 0.09 | 0.00 | 94 | 1008.6 |
| 20260505230100 | 49 | 228 | 1.0 | 5.0 | 0.00 | 0.09 | 0.00 | 93 | 1008.7 |
| 20260505224558 | 50 | 227 | 2.0 | 5.0 | 0.00 | 0.13 | 0.00 | 93 | 1008.9 |
| 20260505223052 | 50 | 215 | 1.0 | 7.0 | 0.00 | 0.13 | 0.00 | 92 | 1008.8 |
| 20260505221557 | 50 | 222 | 1.0 | 4.0 | 0.00 | 0.13 | 0.00 | 92 | 1008.8 |
| 20260505220104 | 51 | 217 | 0.0 | 3.0 | 0.00 | 0.13 | 0.00 | 91 | 1009.1 |
| 20260505214619 | 51 | 232 | 0.0 | 2.0 | 0.00 | 0.14 | 0.13 | 91 | 1009.2 |
| 20260505213109 | 51 | 188 | 0.0 | 2.0 | 0.00 | 0.14 | 0.13 | 92 | 1009.3 |
| 20260505211554 | 51 | 215 | 0.0 | 1.0 | 0.00 | 0.14 | 0.13 | 91 | 1009.4 |
| 20260505210107 | 51 | 225 | 0.0 | 1.0 | 0.00 | 0.14 | 0.13 | 91 | 1009.4 |
| 20260505204557 | 51 | 251 | 0.0 | 4.0 | 0.00 | 0.20 | 0.13 | 91 | 1009.4 |
| 20260505203103 | 51 | 221 | 0.0 | 4.0 | 0.00 | 0.20 | 0.13 | 91 | 1009.3 |
| 20260505201559 | 51 | 188 | 1.0 | 5.0 | 0.00 | 0.20 | 0.13 | 92 | 1009.0 |
| 20260505200056 | 51 | 233 | 0.0 | 4.0 | 0.00 | 0.20 | 0.13 | 90 | 1008.7 |
| 20260505194603 | 51 | 213 | 1.0 | 4.0 | 0.00 | 0.24 | 0.13 | 90 | 1008.7 |
| 20260505193057 | 51 | 245 | 1.0 | 3.0 | 0.00 | 0.24 | 0.13 | 89 | 1008.7 |
| 20260505191601 | 52 | 238 | 0.0 | 2.0 | 0.00 | 0.24 | 0.13 | 87 | 1008.8 |
| 20260505190056 | 53 | 211 | 0.0 | 4.0 | 0.00 | 0.24 | 0.13 | 86 | 1008.6 |
| 20260505184549 | 54 | 239 | 1.0 | 4.0 | 0.00 | 0.24 | 0.13 | 84 | 1008.6 |
| 20260505183148 | 55 | 240 | 0.0 | 3.0 | 0.00 | 0.24 | 0.13 | 83 | 1008.6 |
| 20260505181553 | 56 | 247 | 1.0 | 8.0 | 0.00 | 0.24 | 0.13 | 82 | 1008.3 |
| 20260505180104 | 57 | 251 | 1.0 | 6.0 | 0.00 | 0.24 | 0.13 | 80 | 1008.2 |
| 20260505174602 | 59 | 236 | 2.0 | 10.0 | 0.00 | 0.26 | 0.13 | 76 | 1008.0 |
| 20260505173107 | 60 | 221 | 2.0 | 5.0 | 0.00 | 0.26 | 0.13 | 78 | 1007.9 |
| 20260505171604 | 58 | 248 | 2.0 | 7.0 | 0.00 | 0.26 | 0.13 | 80 | 1008.0 |
| 20260505170103 | 58 | 274 | 0.0 | 6.0 | 0.00 | 0.26 | 0.13 | 81 | 1008.2 |
| 20260505164604 | 59 | 193 | 4.0 | 11.0 | 0.00 | 0.27 | 0.13 | 80 | 1008.3 |
| 20260505163051 | 59 | 270 | 3.0 | 14.0 | 0.00 | 0.27 | 0.13 | 82 | 1008.4 |
| 20260505161624 | 59 | 274 | 6.0 | 15.0 | 0.00 | 0.27 | 0.13 | 80 | 1008.4 |
| 20260505160104 | 60 | 250 | 6.0 | 10.0 | 0.02 | 0.27 | 0.13 | 79 | 1008.3 |
| 20260505153051 | 59 | 216 | 7.0 | 18.0 | 0.02 | 0.27 | 0.13 | 80 | 1008.3 |
| 20260505151614 | 58 | 196 | 7.0 | 13.0 | 0.02 | 0.27 | 0.13 | 83 | 1008.1 |
| 20260505140149 | 65 | 196 | 4.0 | 10.0 | 0.00 | 0.25 | 0.11 | 73 | 1007.5 |
| 20260505124550 | 63 | 250 | 5.0 | 11.0 | 0.00 | 0.25 | 0.11 | 77 | 1008.0 |
| 20260505123054 | 61 | 241 | 5.0 | 10.0 | 0.00 | 0.25 | 0.11 | 78 | 1008.2 |
| 20260505121605 | 62 | 250 | 5.0 | 13.0 | 0.00 | 0.25 | 0.11 | 77 | 1008.2 |
| 20260505120112 | 60 | 275 | 5.0 | 12.0 | 0.00 | 0.25 | 0.11 | 80 | 1008.3 |
| 20260505114603 | 61 | 235 | 4.0 | 11.0 | 0.00 | 0.25 | 0.11 | 81 | 1008.5 |
| 20260505113048 | 60 | 214 | 6.0 | 13.0 | 0.00 | 0.25 | 0.11 | 81 | 1008.4 |
| 20260505111551 | 59 | 245 | 2.0 | 11.0 | 0.00 | 0.25 | 0.11 | 85 | 1008.5 |
| 20260505101604 | 60 | 244 | 5.0 | 12.0 | 0.00 | 0.25 | 0.11 | 82 | 1008.4 |
| 20260505100109 | 60 | 250 | 6.0 | 11.0 | 0.00 | 0.25 | 0.11 | 82 | 1008.4 |
| 20260505094603 | 60 | 250 | 7.0 | 12.0 | 0.00 | 0.25 | 0.11 | 83 | 1008.5 |
| 20260505093048 | 60 | 181 | 6.0 | 12.0 | 0.00 | 0.25 | 0.11 | 87 | 1008.4 |
| 20260505091607 | 58 | 255 | 5.0 | 11.0 | 0.00 | 0.25 | 0.11 | 87 | 1008.2 |